Theta_e
316 315 315 315 314 314 314 314 313 313 313 313 313 314 314 313 313 312 310 312 306 300 302 304 305 302 304 304 301 306 306 307 305 304 305 306 305 308 307 310 309 307 306 305 307 305 303 319 318 316 325 329 329 328
315 315 315 314 314 314 314 314 313 313 313 313 313 313 313 313 312 312 307 312 310 302 301 308 308 310 309 309 307 307 306 306 308 305 307 310 307 310 309 303 314 307 311 308 310 310 320 321 325 326 327 328 331 333
314 315 314 314 314 314 314 314 313 313 313 313 313 313 313 313 312 311 308 310 308 301 300 304 305 311 313 311 312 303 307 309 308 311 306 307 305 313 306 308 310 315 316 311 313 315 316 319 321 324 326 328 332 337
313 314 314 314 314 314 314 314 313 313 313 313 313 313 313 312 312 311 308 309 307 301 293 303 313 310 315 315 312 310 310 313 311 310 306 306 306 315 312 312 312 315 318 316 315 319 319 319 321 325 327 331 335 339
313 313 313 313 313 314 314 314 313 313 313 313 313 313 313 312 311 310 310 311 309 300 294 299 306 313 315 314 312 311 309 308 308 305 304 304 310 312 314 312 311 316 315 312 310 318 320 321 329 331 330 333 339 340
312 313 313 313 313 314 314 313 313 313 313 313 313 312 312 311 310 308 301 312 310 307 296 293 310 310 314 315 313 311 310 309 308 306 305 308 312 308 308 309 316 317 317 319 317 323 323 328 332 333 335 339 342 341
312 312 313 313 313 313 313 312 313 313 312 312 312 311 311 310 309 303 304 309 310 309 297 294 299 312 311 310 312 310 312 310 309 307 305 307 310 309 309 307 315 316 318 321 322 322 325 330 329 337 340 339 333 338
312 312 312 313 313 313 312 312 312 312 312 311 311 310 309 309 308 303 308 309 310 303 301 295 298 307 315 309 307 312 308 309 308 308 308 306 309 309 306 314 315 318 319 322 323 326 329 333 334 334 335 336 335 336
311 312 312 312 312 312 312 312 312 312 311 311 310 308 309 305 303 306 311 310 310 303 297 299 299 300 315 309 310 310 310 304 311 306 306 308 305 304 310 315 315 317 320 323 327 328 329 332 333 333 333 334 333 335
311 311 311 311 311 311 311 312 312 311 310 309 307 305 304 305 307 309 305 302 300 300 300 297 303 301 308 311 305 306 307 306 303 306 310 305 305 311 313 316 317 317 320 323 321 324 327 329 331 332 332 334 336 336
311 311 310 310 309 310 311 311 311 309 309 307 306 305 308 309 308 305 300 297 298 296 299 301 303 300 308 301 305 305 304 307 301 305 303 302 302 308 313 314 317 317 317 323 324 323 325 326 328 330 332 335 337 338
310 309 309 309 309 309 310 310 310 309 309 306 304 306 305 301 300 298 297 300 298 297 303 302 304 304 308 311 304 304 302 306 300 311 305 300 306 313 314 313 315 317 316 320 323 323 325 327 328 329 330 330 332 337
309 309 309 308 309 309 310 310 310 309 308 307 300 298 297 298 291 293 292 296 294 301 303 304 302 307 305 312 306 302 299 300 311 304 302 308 322 322 320 317 314 319 318 324 325 328 329 330 331 330 330 331 333 333
308 308 308 309 309 310 310 310 309 309 306 300 297 290 295 295 298 298 298 299 304 304 302 304 304 304 308 304 307 299 302 304 298 299 303 310 313 319 324 323 320 318 322 326 328 329 329 329 329 330 330 332 332 332
308 308 309 309 309 310 309 309 308 308 304 298 297 290 295 300 302 301 304 304 306 307 305 305 306 305 302 300 304 304 299 297 300 302 308 311 316 319 323 324 323 323 326 327 328 328 327 328 328 328 329 330 331 332
308 308 310 309 309 308 308 308 308 307 301 299 296 294 297 299 302 300 302 302 308 305 306 305 302 300 299 301 298 299 296 298 302 307 311 316 318 320 322 325 327 328 328 327 326 326 326 326 325 325 327 327 328 330
307 307 308 308 308 308 307 307 306 300 299 297 295 299 298 297 299 300 305 303 310 304 297 299 296 294 300 299 297 303 301 305 308 311 316 320 320 321 324 324 324 324 324 325 324 324 323 324 325 324 323 324 325 326
306 309 308 308 308 307 308 306 301 299 295 297 296 298 300 301 300 301 302 303 305 303 301 298 301 296 296 293 297 304 308 311 312 314 316 317 320 322 322 323 324 324 324 324 324 324 324 323 322 321 324 324 323 324
308 309 308 308 308 306 303 302 302 294 297 300 302 303 303 303 305 305 305 306 308 310 304 302 298 298 300 306 307 306 306 308 310 314 315 316 317 319 320 320 320 323 324 325 324 321 322 323 321 321 320 320 319 321
307 307 308 308 308 303 298 300 307 299 297 300 303 301 301 302 305 306 305 305 305 305 301 301 302 306 309 311 313 311 309 309 313 313 313 315 317 318 320 321 319 322 322 323 322 314 321 321 321 320 320 319 319 320
305 307 308 310 306 303 300 300 300 301 301 300 300 298 299 304 304 305 305 308 304 304 303 307 308 310 314 314 316 313 311 310 309 310 312 313 317 319 320 322 323 320 320 320 319 318 314 320 321 321 320 321 321 321
306 306 309 308 302 301 298 302 301 302 300 300 298 300 299 297 299 305 308 304 303 304 309 309 309 311 308 310 312 315 313 311 312 311 308 311 318 320 324 321 319 319 319 319 318 318 319 320 322 322 320 320 318 322
306 307 304 302 298 294 296 305 297 298 294 297 300 297 298 301 305 307 300 303 305 312 316 315 314 315 313 314 314 313 316 311 310 311 314 317 318 324 326 327 324 320 318 319 321 321 321 313 317 320 320 320 321 321
305 302 297 296 296 293 301 297 298 295 298 296 296 295 299 305 307 303 300 302 306 311 311 310 309 309 311 314 314 316 316 316 314 315 314 315 318 317 319 322 324 325 324 324 323 323 325 324 316 322 320 320 320 320
295 293 294 286 298 294 292 293 294 295 294 296 296 298 301 306 300 300 298 303 307 307 308 310 310 309 308 310 312 314 318 318 317 315 317 317 317 319 319 320 321 323 324 321 321 322 323 323 323 322 320 319 319 318
288 295 290 294 293 291 294 292 294 295 296 295 297 300 302 301 298 297 303 307 309 308 307 308 309 310 309 314 314 314 314 317 316 315 317 318 317 316 315 315 315 317 322 322 322 322 322 323 322 321 319 317 305 317
289 291 298 301 299 298 297 300 301 298 295 294 297 297 297 294 296 303 306 307 307 306 311 310 308 309 312 314 318 319 316 317 315 316 319 319 319 319 318 316 316 319 324 323 324 324 322 322 321 321 320 320 320 318
296 297 292 297 298 301 294 296 295 294 297 301 299 295 294 296 297 303 305 307 307 308 309 311 315 316 317 319 317 316 316 316 315 314 316 317 318 318 319 319 320 305 321 323 324 324 324 322 322 321 321 320 320 323
295 300 299 294 296 297 297 296 298 300 302 299 295 293 296 302 304 304 305 307 308 307 307 312 319 319 316 316 316 317 313 312 310 309 311 311 313 315 318 319 320 322 323 323 303 311 322 321 321 323 322 324 325 325
295 298 294 294 293 295 299 302 300 301 301 302 303 302 301 302 306 309 308 309 309 312 316 317 315 320 316 316 317 316 319 317 314 314 312 312 314 321 324 323 323 324 324 323 321 322 302 315 313 317 315 319 321 322
298 297 295 295 295 299 301 303 303 303 302 302 303 301 301 305 308 313 313 314 315 315 317 316 317 317 314 313 314 314 315 318 318 320 320 320 323 325 328 328 329 330 327 324 323 322 321 320 321 321 320 319 318 315
296 294 295 295 299 303 303 301 301 303 307 307 308 309 308 306 307 315 318 319 316 315 310 314 317 317 319 318 317 319 304 321 322 322 323 321 322 325 327 328 328 328 327 323 320 320 320 320 317 317 319 318 319 319
298 299 300 299 300 301 304 304 307 306 308 307 308 309 308 307 304 310 315 318 317 317 317 320 321 322 322 322 323 324 312 327 314 297 298 296 293 304 319 325 326 326 323 323 323 322 321 321 320 322 322 322 322 323
Wind_Speed
15 14 13 13 14 13 13 13 13 13 13 12 13 13 11 10 8 5 5 6 5 5 14 17 16 15 13 11 9 7 8 5 5 6 8 9 8 9 14 16 20 16 13 12 14 13 13 10 8 10 5 5 2 3
15 14 14 14 13 12 12 13 12 12 12 12 13 13 11 10 8 5 6 3 5 5 12 22 24 26 25 22 13 7 10 6 4 5 4 6 7 4 11 11 3 14 14 10 9 10 6 2 3 4 6 6 4 5
15 14 13 13 13 13 13 13 13 13 12 13 13 14 13 10 9 7 5 6 3 5 10 13 10 14 18 23 21 12 7 7 5 3 6 4 6 4 8 14 10 7 3 7 4 8 4 2 4 5 5 6 5 5
15 14 13 13 12 13 12 13 13 13 13 13 14 14 13 11 10 9 5 5 3 3 5 5 2 2 6 11 17 23 19 2 4 6 7 7 6 2 5 7 8 3 9 6 6 4 5 9 9 5 6 6 5 7
14 13 12 12 12 12 12 12 13 13 14 14 14 14 13 10 10 9 9 9 9 4 4 9 24 10 6 13 16 17 20 17 8 6 6 8 7 5 5 4 8 5 6 8 6 2 5 10 7 5 7 8 10 12
13 12 11 11 11 12 12 12 13 14 16 15 14 14 14 9 7 4 5 3 6 5 2 5 6 8 4 4 12 15 13 11 9 5 6 6 12 5 5 8 5 7 5 8 5 5 6 7 4 6 8 11 12 13
12 12 11 11 11 11 11 12 13 14 15 15 15 15 14 11 5 5 4 3 8 4 3 5 5 5 6 4 6 7 11 8 7 7 8 10 6 4 7 9 3 4 3 5 6 4 4 7 5 8 12 13 14 15
11 11 10 11 12 12 11 12 13 14 15 16 16 15 15 10 4 5 8 6 8 2 3 4 6 6 4 4 4 5 7 7 8 7 7 10 9 6 6 9 4 2 1 1 6 8 4 7 11 12 13 15 17 16
12 11 11 11 10 11 12 12 13 13 14 16 16 12 2 2 3 1 5 13 3 2 3 4 4 3 2 1 1 2 5 7 5 8 11 9 11 10 9 8 3 4 3 3 7 11 9 10 11 11 12 12 13 13
11 11 9 10 11 11 12 12 11 11 14 16 6 5 3 2 4 6 3 4 4 4 4 5 4 8 5 1 3 1 3 6 6 9 7 13 12 15 16 9 2 3 6 8 9 13 12 14 12 11 10 9 11 11
11 10 11 12 11 12 12 11 8 9 10 2 3 2 5 1 4 4 4 5 5 5 5 5 8 9 3 6 3 2 3 5 6 7 7 9 12 17 17 14 12 7 6 7 9 7 7 8 12 11 12 9 10 11
10 11 11 13 13 13 12 8 6 3 2 6 5 4 3 2 4 5 4 4 6 3 1 3 3 4 5 5 3 3 5 1 6 3 5 8 9 13 15 18 17 11 4 3 1 5 12 11 10 9 12 12 10 11
11 11 12 13 13 13 10 7 6 7 7 2 2 3 3 2 4 4 3 2 4 1 2 3 2 3 3 7 4 3 4 4 2 5 6 1 8 0 6 10 14 8 7 7 9 10 13 13 10 11 13 10 11 10
10 12 13 13 14 12 9 6 4 3 5 3 3 3 5 5 3 3 5 2 2 3 6 7 3 3 2 2 3 5 4 4 4 7 4 6 7 7 4 7 10 12 12 12 13 12 13 14 13 13 11 10 10 11
11 12 12 11 3 4 5 3 1 2 3 3 2 5 4 3 3 1 5 4 2 4 6 6 3 2 1 2 3 2 3 4 4 2 4 6 7 4 3 8 13 14 14 14 14 13 14 14 13 13 11 10 10 11
10 13 1 2 2 1 2 4 3 2 2 3 4 6 6 8 2 4 5 5 3 4 5 3 2 3 2 3 3 5 4 2 4 4 5 5 4 5 9 11 12 13 14 15 14 13 13 12 13 12 11 9 9 9
9 2 2 3 1 7 6 4 3 4 4 4 4 5 6 7 7 6 4 3 3 3 3 4 2 2 4 4 4 2 3 4 4 3 3 7 11 12 12 13 14 15 15 14 14 13 12 10 10 10 10 8 8 7
3 2 2 2 4 5 3 3 3 4 6 6 4 4 4 6 7 8 3 4 5 2 2 3 3 3 3 4 4 4 3 4 3 3 5 5 9 8 9 11 12 13 14 13 12 11 10 9 9 8 9 8 9 8
2 1 3 4 3 4 2 4 1 3 4 3 7 8 7 7 7 7 7 5 4 1 2 3 4 2 2 2 5 5 6 5 2 2 3 5 5 4 6 7 7 10 10 11 9 8 7 7 7 7 6 5 5 4
4 6 7 6 6 2 4 3 3 4 4 3 5 4 5 8 6 5 5 5 4 3 4 4 0 3 1 3 4 4 5 7 4 4 2 4 4 3 2 3 6 7 7 9 10 5 7 7 6 6 5 5 5 5
3 3 4 4 3 2 3 3 4 3 5 4 3 4 5 6 6 3 3 3 5 3 3 1 3 3 3 3 2 3 3 4 6 4 4 3 0 2 5 6 6 6 6 7 7 5 3 5 6 6 6 5 5 6
2 4 2 1 2 3 3 3 5 5 4 4 4 1 3 2 4 2 1 4 1 2 3 5 5 1 2 4 3 3 4 4 5 5 3 2 3 4 3 5 7 6 6 6 6 6 5 6 6 6 5 6 3 5
3 3 2 2 2 1 3 2 4 2 4 3 3 3 3 3 3 4 3 3 3 4 5 4 4 3 4 4 3 4 8 3 3 4 6 4 3 4 5 4 4 6 6 6 4 4 5 6 4 5 6 6 4 5
1 2 2 2 2 3 1 3 1 3 4 3 3 3 3 2 2 2 2 2 2 5 5 7 6 5 4 6 3 1 3 5 3 3 3 6 2 5 3 2 3 2 0 3 4 4 3 5 7 6 7 7 6 5
2 1 2 3 4 3 2 3 3 4 3 3 3 3 3 2 1 1 1 2 2 1 3 5 5 4 4 5 3 2 1 3 4 5 2 3 6 2 3 3 2 1 3 4 5 6 5 5 7 7 8 7 7 7
2 4 3 2 2 2 2 3 3 4 3 3 1 4 3 3 4 2 1 2 0 3 6 9 8 7 6 9 6 4 2 4 5 6 5 6 6 5 4 4 4 5 5 4 5 6 7 6 6 8 8 8 3 6
2 3 3 2 2 2 3 3 2 3 2 3 3 4 3 3 2 3 2 5 5 6 8 5 6 7 6 6 6 2 4 6 7 6 4 4 5 5 6 5 5 5 1 4 5 5 6 6 7 8 9 8 8 7
2 2 1 3 3 2 4 3 2 3 3 3 5 5 7 7 3 2 2 2 4 7 9 8 7 6 6 4 3 3 3 3 4 4 6 6 6 6 7 6 6 5 5 6 5 4 4 4 4 6 6 5 5 9
3 1 2 4 3 2 2 2 2 3 3 3 4 2 3 3 3 6 6 6 6 5 5 6 4 2 2 3 4 3 3 3 5 8 9 7 7 7 7 7 6 6 7 8 9 8 3 4 2 1 2 2 0 3
2 3 1 2 3 2 2 2 1 2 1 1 1 2 3 3 6 6 5 5 5 5 5 4 5 3 3 4 3 1 1 3 6 8 4 3 2 1 2 4 4 5 5 6 7 7 5 5 6 4 5 6 4 1
1 2 2 3 2 1 2 4 4 3 2 2 6 4 3 2 5 3 3 2 4 5 6 6 4 4 2 3 5 5 3 0 4 5 5 4 2 2 0 2 3 2 1 3 4 4 6 7 7 8 5 6 8 5
2 2 2 3 1 1 3 2 3 3 3 4 5 5 2 3 4 3 4 5 4 6 6 6 7 4 3 3 3 4 4 5 1 3 4 4 3 2 3 1 0 1 2 5 6 7 7 7 3 6 7 6 5 7
3 3 2 2 2 3 2 3 3 3 6 8 8 7 6 4 5 4 8 9 8 10 9 8 6 5 5 3 3 3 2 4 8 8 7 8 10 8 6 4 3 3 3 4 4 4 6 7 6 8 5 4 2 2
Wind_Direction
270 266 267 272 280 287 289 290 294 299 307 308 306 308 311 306 310 299 288 198 245 251 285 275 274 267 262 258 273 339 280 179 223 252 242 231 257 230 244 216 195 199 200 212 236 228 234 127 141 219 360 49 16 244
286 269 263 268 276 280 280 284 289 293 293 297 299 300 302 299 290 302 276 264 216 235 274 302 287 279 264 259 289 275 296 304 302 268 250 309 242 254 251 209 204 228 210 232 230 217 109 296 19 18 333 328 325 256
296 280 268 269 275 279 280 281 286 288 290 294 297 298 299 296 272 255 275 286 234 265 273 249 256 235 227 234 242 252 245 235 229 349 314 282 272 308 248 242 199 193 268 244 177 195 229 252 250 257 285 283 298 244
303 293 279 273 274 279 277 277 283 288 289 287 291 292 296 294 281 261 249 255 223 274 282 303 298 246 240 225 216 222 250 293 281 278 272 276 281 80 295 326 274 351 161 182 215 275 284 283 271 277 268 242 207 184
300 293 284 277 276 279 276 276 280 281 283 284 285 286 285 283 282 278 261 244 220 217 287 300 302 257 264 218 219 214 227 244 266 270 232 253 273 284 224 272 255 192 186 217 237 329 281 283 316 296 237 197 165 163
299 296 291 285 280 280 278 276 273 279 283 286 284 283 285 273 275 287 289 127 187 176 270 283 331 289 249 239 206 205 215 223 229 226 245 256 263 270 273 258 250 230 240 289 290 349 317 293 266 240 193 156 144 152
302 298 291 285 279 277 285 285 286 283 283 285 286 286 283 269 232 217 318 22 138 125 236 272 273 178 106 181 159 183 194 202 217 223 227 256 244 233 264 261 250 280 297 275 269 242 217 195 159 153 145 128 124 125
294 293 293 292 291 289 289 289 291 288 291 292 294 297 294 278 219 237 239 185 171 188 234 269 271 243 175 221 152 166 174 201 195 236 235 229 233 227 259 234 273 301 300 202 195 201 240 132 132 129 132 130 128 130
295 296 297 292 291 295 294 294 294 290 293 295 307 307 205 212 213 68 60 167 203 279 273 243 269 333 126 69 123 210 214 201 195 221 229 219 213 221 222 241 286 189 115 80 164 155 134 129 123 127 125 127 125 132
294 295 295 298 306 303 296 295 295 296 298 300 272 229 204 133 275 251 161 194 170 200 225 250 274 257 315 235 170 261 212 252 203 211 219 222 236 223 238 238 190 269 245 233 128 124 137 127 128 133 110 117 129 135
291 293 296 298 304 302 298 299 301 312 280 254 291 286 8 351 242 205 233 205 171 220 205 233 235 243 263 233 208 199 249 276 247 173 210 211 218 219 229 244 249 236 245 227 279 145 69 108 113 109 99 105 114 126
293 290 290 296 301 302 298 290 297 266 296 359 326 313 303 258 216 235 222 196 208 265 323 246 227 219 233 173 184 192 246 222 251 121 223 238 226 222 215 224 234 227 221 226 48 147 107 88 100 134 123 105 112 109
288 288 289 293 299 296 293 286 272 274 283 225 207 239 232 225 240 245 260 92 321 275 252 260 292 255 206 219 196 196 259 242 339 261 217 207 47 68 229 235 216 188 184 139 118 109 114 116 106 89 91 90 97 107
284 288 291 292 289 283 277 269 226 219 254 256 269 254 238 200 227 358 332 299 307 298 319 303 253 288 49 198 209 218 200 284 231 214 200 20 335 311 259 203 174 177 155 134 133 139 122 106 97 90 93 98 104 108
289 294 293 287 342 100 125 160 227 276 285 253 262 254 245 340 176 225 288 299 293 278 301 292 243 249 162 271 269 302 225 214 252 313 345 325 308 295 154 165 162 152 140 139 128 117 107 106 102 96 92 96 101 109
298 299 228 150 151 136 276 259 220 179 249 241 233 252 245 267 309 335 312 321 331 300 292 241 309 289 224 224 236 215 228 347 17 321 308 294 73 102 112 110 112 118 121 116 111 109 104 102 101 100 95 93 96 106
301 233 112 125 269 281 250 250 184 215 241 230 226 245 277 290 294 305 312 303 296 326 333 292 347 307 293 236 216 310 19 342 305 311 29 55 85 91 97 103 106 106 103 102 101 97 98 104 107 105 100 96 98 98
242 152 139 221 290 264 176 228 250 244 235 233 248 263 234 256 278 284 275 299 305 312 291 7 291 265 305 345 323 351 341 331 333 67 54 68 60 65 71 79 84 94 99 98 98 99 102 106 107 101 107 111 112 109
301 347 221 281 290 291 248 187 261 266 255 252 234 237 252 281 281 277 273 254 261 277 282 247 255 266 286 326 24 40 13 351 312 76 52 71 74 60 87 97 92 93 97 106 111 96 93 85 101 112 116 118 93 77
265 267 270 229 215 241 239 222 204 258 274 341 284 298 302 291 294 287 261 244 244 217 224 235 19 339 25 46 34 52 27 345 358 109 100 94 95 124 125 76 101 126 114 121 99 103 118 127 128 134 113 92 92 89
156 168 150 202 170 245 298 294 236 251 309 286 351 300 291 283 255 244 208 183 214 242 259 313 30 32 55 76 92 73 37 26 11 342 345 26 207 164 163 144 154 122 122 123 154 119 208 145 141 139 160 130 106 92
162 237 214 149 246 174 252 244 291 325 268 301 334 247 255 328 302 324 27 224 227 324 337 334 337 321 265 296 337 148 86 40 308 322 64 219 171 158 165 159 153 146 143 144 141 147 131 139 149 162 171 131 165 118
199 201 189 229 265 159 257 242 263 287 281 294 280 299 255 191 242 154 199 19 353 327 315 5 353 302 302 298 252 219 153 152 334 353 357 17 78 66 141 154 197 162 154 158 176 176 153 109 163 184 156 173 171 149
144 260 300 265 225 278 267 247 194 258 246 253 274 281 276 334 136 246 65 65 354 352 9 360 3 357 353 351 20 47 184 155 242 257 335 333 46 98 40 107 158 163 244 150 189 173 185 188 160 200 183 183 184 200
247 163 177 262 222 257 274 307 259 257 289 336 316 300 1 318 241 94 142 193 158 251 355 358 342 325 308 305 283 242 181 240 244 270 218 281 296 255 207 184 190 263 216 217 207 214 188 173 185 193 193 196 195 190
260 165 211 53 82 260 275 291 347 347 318 314 316 319 303 292 251 156 129 148 27 329 338 328 316 303 314 294 285 238 271 294 246 243 220 195 238 255 261 263 247 223 201 246 270 215 208 199 191 188 199 194 218 240
248 157 162 205 296 268 257 266 296 281 300 340 349 328 307 285 324 65 31 26 359 332 311 312 288 288 285 291 292 266 233 232 214 246 295 276 253 252 268 264 255 265 281 254 233 234 245 222 215 211 208 201 188 211
305 297 195 146 240 244 299 301 294 343 9 356 333 356 344 349 321 299 273 291 304 298 296 299 282 250 254 271 306 299 276 254 247 273 268 246 244 246 248 249 249 81 267 269 259 225 210 246 208 183 193 201 252 243
237 182 280 275 255 228 253 267 303 58 38 359 3 305 273 254 272 279 290 292 295 279 281 290 286 181 267 260 250 232 205 206 214 227 237 247 215 202 207 222 228 219 219 219 190 247 234 198 312 99 97 44 147 237
28 47 261 241 259 230 88 320 343 50 17 68 103 264 259 252 267 268 278 289 295 305 303 287 287 335 355 6 0 13 179 224 212 251 276 207 210 92 179 215 211 212 195 207 200 175 173 216 195 239 243 254 292 253
294 261 226 237 256 262 336 355 3 310 284 212 209 231 248 277 292 252 256 258 288 303 320 335 14 132 94 342 352 5 60 69 335 297 299 306 310 86 81 198 198 195 185 205 218 223 182 204 231 233 238 249 229 247
190 250 286 296 3 192 172 207 218 217 206 216 186 220 216 223 15 2 341 337 350 13 15 356 351 28 142 202 240 278 268 289 272 249 229 211 257 326 317 65 194 238 185 160 172 205 214 212 239 251 255 241 231 236
201 218 253 299 316 360 40 281 223 116 88 72 56 45 82 72 50 357 348 359 13 21 13 32 35 24 40 21 346 338 259 79 77 64 60 43 31 5 313 333 14 308 269 255 264 239 215 202 245 250 239 252 233 226